Regional Weather Roundup
Issued by NWS Boston, MA

Home | Current Version | Previous Version | Text Only | Print | Product List | Glossary On
Versions: 1 2 3 4 5 6 7 8 9 10 11 12 13 14 15 16 17 18 19 20 21 22 23 24 25 26 27 28 29 30 31 32 33 34 35 36 37 38 39 40 41 42 43 44 45 46 47 48 49 50
000
ASUS41 KBOX 221810
RWRBOX

REGIONAL WEATHER ROUNDUP
NATIONAL WEATHER SERVICE TAUNTON MA
200 PM EDT MON SEP 22 2014

NOTE:  "FAIR" INDICATES FEW OR NO CLOUDS BELOW 12,000 FEET WITH NO
SIGNIFICANT WEATHER AND/OR OBSTRUCTIONS TO VISIBILITY.  THE FOLLOWING
OBSERVATION LOCATIONS DO NOT REPORT PRESENT WEATHER...PROVINCETOWN...
SMITHFIELD...BLOCK ISLAND...KEENE...AND OXFORD.

MAZALL-221900-
EASTERN MASSACHUSETTS

CITY           SKY/WX    TMP DP  RH WIND       PRES   REMARKS
BOSTON         MOSUNNY   72  47  40 W18G25    29.75S
6HR MIN TEMP:  66; 6HR MAX TEMP:  74;

BEVERLY        MOSUNNY   74  47  38 NW20G26   29.73R
LAWRENCE       SUNNY     69  47  45 NW15G29   29.77R
BEDFORD        SUNNY     69  47  45 W20G26    29.76R
BLUE HILL        N/A     70  45  40 W18G32    29.77R
NORWOOD        SUNNY     72  47  40 W16       29.76S
MARSHFIELD     NOT AVBL
PLYMOUTH       SUNNY     74  48  39 W16G26    29.76R
TAUNTON        SUNNY     73  47  39 NW15G23   29.77R
NEW BEDFORD    SUNNY     75  48  38 W16G28    29.77R
$$

MAZALL-221900-
CAPE COD AND THE ISLANDS

CITY           SKY/WX    TMP DP  RH WIND       PRES   REMARKS
FALMOUTH       SUNNY     75  52  43 W18G26    29.76S
HYANNIS        SUNNY     76  50  40 W15G28    29.74S
CHATHAM        MOSUNNY   75  57  53 SW14G28   29.76R
PROVINCETOWN   SUNNY     72  57  60 W12       29.76R
NANTUCKET      SUNNY     72  57  59 W21G28    29.79R
MARTHAS VNYRD  SUNNY     74  51  44 W12G23    29.78S
$$

MAZALL-221900-
CENTRAL AND WESTERN MASSACHUSETTS

CITY           SKY/WX    TMP DP  RH WIND       PRES   REMARKS
WORCESTER      MOSUNNY   64  47  53 W21G28    29.82R
6HR MIN TEMP:  58; 6HR MAX TEMP:  64;

FITCHBURG      MOSUNNY   69  43  38 NW21G30   29.81R
ORANGE         MOSUNNY   65  42  43 W17G26    29.83R
SPRINGFIELD    SUNNY     65  45  47 NW15G31   29.85R
WESTFIELD      MOSUNNY   67  43  41 NW17G30   29.86R
NORTH ADAMS    CLOUDY    59  42  53 W10G23    29.88S
PITTSFIELD     CLOUDY    57  44  62 NW16G23   29.89S
$$

RIZALL-221900-
RHODE ISLAND

CITY           SKY/WX    TMP DP  RH WIND       PRES   REMARKS
PROVIDENCE     MOSUNNY   73  45  36 W16G29    29.81R
6HR MIN TEMP:  64; 6HR MAX TEMP:  74;

NEWPORT        SUNNY     73  48  41 W14G21    29.80R
BLOCK ISLAND   SUNNY     72  55  56 W16G23    29.82S
WESTERLY       SUNNY     72  48  42 NW9G23    29.82S
$$

CTZALL-221900-
CONNECTICUT

CITY           SKY/WX    TMP DP  RH WIND       PRES   REMARKS
BRADLEY INTL   MOSUNNY   71  46  40 NW20G25   29.85R
6HR MIN TEMP:  63; 6HR MAX TEMP:  71;

HARTFORD       PTSUNNY   68  46  45 W9G23     29.86R
BRIDGEPORT     MOSUNNY   72  49  44 NW14G22   29.86R
DANBURY        PTSUNNY   67  46  47 W12G25    29.90R
GROTON         MOSUNNY   74  51  44 NW16      29.82R
NEW HAVEN      MOSUNNY   73  48  41 NW9       29.86R
CHESTER        FAIR      70  48  46 NW10G17   29.86R
MERIDEN        PTSUNNY   72  47  40 N10       29.86R
WILLIMANTIC    SUNNY     68  47  46 W15G23    29.85R
OXFORD         PTSUNNY   66  46  48 NW12G21   29.89R
$$

MEZ002-015-021-024-NHZ003-005-008-011-012-014-VTZ005-008-221900-
NORTHERN NEW ENGLAND

CITY           SKY/WX    TMP DP  RH WIND       PRES   REMARKS
PORTLAND ME    MOSUNNY   68  48  48 W17G26    29.69R
6HR MIN TEMP:  63; 6HR MAX TEMP:  72;

BANGOR ME      MOSUNNY   67  45  45 W18G30    29.59R
CONCORD NH     PTSUNNY   66  42  41 W22G36    29.77R
MANCHESTER NH  MOSUNNY   68  43  40 W13G25    29.76R
NASHUA NH      MOSUNNY   70  45  40 W13G18    29.78R
PORTSMOUTH NH  MOSUNNY   70  46  42 W13G29    29.73R
JAFFREY NH     MOSUNNY   63  41  44 W10G23    29.82R
KEENE NH       MOSUNNY   63  37  39 NW15G21   29.83R
BURLINGTON VT  PTSUNNY   56  41  57 W17G28    29.87R
MT. WASHINGTON FOG       30  30 100 W67G75      N/A  VSB 1/16WCI  10
$$

NYZ052-076-221900-
EASTERN NEW YORK

CITY           SKY/WX    TMP DP  RH WIND       PRES   REMARKS
ALBANY         PTSUNNY   60  44  55 W26G36    29.92R
6HR MIN TEMP:  57; 6HR MAX TEMP:  63;

NEW YORK CITY  PTSUNNY   70  47  43 W17G28    29.90R
6HR MIN TEMP:  65; 6HR MAX TEMP:  70;

$$

ANZALL-221900-
MARINE OBSERVATIONS

STATION/POSITION TIME  TEMP    WIND        PRES    VSBY  WAVE
                       AIR SEA DIR/SP/G                  HT/PER
                 (UTC) (F)     (DEG/KT/KT) (MB)    (MI)  (FT/S)
BOSTON BUOY      1750   65 61  270/ 16/ 19 1007.0S         4/11
BUZZARDS BAY     1700          270/ 20/ 21 1009.3R
NANTUCKET SOUND  1750   67 68  240/ 17/ 21 1007.7S         3/ 4
MASS BAY-STELLWA 1704   65 61  260/ 14/ 16   N/A    1 7/8
ISLE OF SHOALS   1800   65     290/ 23/ 26 1005.9R
S OF BLOCK IS    1708      67                N/A           8/11
$$

......................KEY.........................
  SKY/WX - SKY CONDITION/PRESENT WEATHER
  TMP    - TEMPERATURE IN FAHRENHEIT
  DWPT   - DEWPOINT IN FAHRENHEIT
  RH     - RELATIVE HUMIDITY IN PERCENT
  WIND   - DIRECTION AND SPEED IN MPH
  PRES   - MEAN SEA LEVEL PRESSURE IN INCHES OF HG
  WCI    - WIND CHILL INDEX
  VSB    - VISIBILITY IN MILES
  HX     - HEAT INDEX
  TC     - TEMPERATURE IN CELSIUS
  VRB    - VARIABLE WIND DIRECTION
  N/A    - NOT AVAILABLE



USA.gov is the U.S. government's official web portal to all federal, state and local government web resources and services.